Location: Unspecified
(0.0000°N, 0.0000°E)
Time: 09:53:57
(UTC+00:00)

Explorer 11/Cluster Stage 4 - All Passes

Search period start: 08 December 2016 00:00
Search period end: 18 December 2016 00:00
Orbit: 467 x 1264 km, 28.8° (Epoch: 06 December)

Date Brightness Start Highest point End Pass type
(mag) Time Alt. Az. Time Alt. Az. Time Alt. Az.
08 Dec - 00:42:31 10° WSW 00:45:14 19° SSW 00:47:50 10° SSE night (unlit)
08 Dec - 08:05:10 10° SSE 08:05:56 10° SSE 08:06:43 10° SE daylight
08 Dec - 09:48:58 10° SW 09:55:17 39° SSE 10:02:35 10° E daylight
08 Dec - 11:37:10 10° WSW 11:44:40 67° NNW 11:52:54 10° NE daylight
08 Dec - 13:28:21 10° WNW 13:34:35 24° NNW 13:40:51 10° NNE daylight
08 Dec - 20:55:32 10° NNW 20:58:23 15° NNE 21:00:58 10° NE night (unlit)
08 Dec - 22:42:46 10° NW 22:47:18 70° NNE 22:51:08 10° ESE night (unlit)
09 Dec - 00:33:20 10° WSW 00:35:29 14° SSW 00:37:34 10° S night (unlit)
09 Dec - 07:54:01 10° S 07:56:08 12° SSE 07:58:22 10° SE daylight
09 Dec - 09:38:59 10° SW 09:45:16 46° SSE 09:52:41 10° ENE daylight
09 Dec - 11:27:25 10° WSW 11:34:37 57° NNW 11:42:41 10° NE daylight
09 Dec - 13:19:00 10° WNW 13:24:40 20° NNW 13:30:25 10° NNE daylight
09 Dec - 20:44:48 10° NNW 20:48:42 19° NNE 20:52:05 10° ENE night (unlit)
09 Dec - 22:32:46 10° WNW 22:37:33 85° SSW 22:41:30 10° ESE night (unlit)
10 Dec - 00:24:31 10° SW 00:25:44 11° SSW 00:26:56 10° SSW night (unlit)
10 Dec - 07:43:31 10° S 07:46:18 13° SSE 07:49:19 10° ESE daylight
10 Dec - 09:29:03 10° SW 09:35:15 54° SSE 09:42:44 10° ENE daylight
10 Dec - 11:17:43 10° W 11:24:36 48° NNW 11:32:24 10° NE daylight
10 Dec - 13:09:47 10° WNW 13:14:47 18° NNW 13:19:54 10° NNE daylight
10 Dec - 20:34:16 10° NNW 20:38:59 25° NNE 20:42:58 10° E visible
10 Dec - 22:22:50 10° WNW 22:27:46 64° SSW 22:31:48 10° SE night (unlit)
11 Dec - 07:33:12 10° S 07:36:26 15° SSE 07:40:02 10° ESE daylight
11 Dec - 09:19:11 10° SW 09:25:15 64° SSE 09:32:43 10° ENE daylight
11 Dec - 11:08:07 10° W 11:14:38 40° NNW 11:22:04 10° NE daylight
11 Dec - 13:00:45 10° NW 13:04:57 15° NNW 13:09:17 10° NNE daylight
11 Dec - 18:37:42 10° N 18:39:21 11° NNE 18:40:56 10° NNE visible
11 Dec - 20:23:50 10° NW 20:29:14 32° NNE 20:33:41 10° E visible
11 Dec - 22:12:56 10° WNW 22:17:57 49° SSW 22:22:02 10° SE night (unlit)
12 Dec - 07:23:01 10° S 07:26:34 18° SSE 07:30:37 10° ESE daylight
12 Dec - 09:09:21 10° SW 09:15:16 77° SSE 09:22:38 10° ENE daylight
12 Dec - 10:58:37 10° W 11:04:42 33° NNW 11:11:41 10° NE daylight
12 Dec - 12:51:58 10° NW 12:55:10 13° NNW 12:58:28 10° N daylight
12 Dec - 18:26:14 10° N 18:29:39 14° NNE 18:32:47 10° NE visible
12 Dec - 20:13:28 10° NW 20:19:27 41° NNE 20:24:16 10° E visible
12 Dec - 22:03:05 10° W 22:08:06 39° SSW 22:12:12 10° SE night (unlit)
13 Dec - 07:12:55 10° SSW 07:16:42 21° SSE 07:21:05 10° E daylight
13 Dec - 08:59:36 10° WSW 09:05:19 88° NNW 09:12:30 10° ENE daylight
13 Dec - 10:49:14 10° W 10:54:50 28° NNW 11:01:14 10° NNE daylight
13 Dec - 12:43:45 10° NNW 12:45:25 11° NNW 12:47:07 10° N daylight
13 Dec - 18:15:22 10° NNW 18:19:55 17° NNE 18:24:00 10° ENE visible
13 Dec - 20:03:10 10° NW 20:09:38 53° NNE 20:14:47 10° ESE visible
13 Dec - 21:53:17 10° W 21:58:14 32° SSW 22:02:20 10° SSE night (unlit)
14 Dec - 07:02:53 10° SSW 07:06:49 24° SSE 07:11:28 10° E daylight
14 Dec - 08:49:56 10° WSW 08:55:24 72° NNW 09:02:19 10° NE daylight
14 Dec - 10:39:58 10° WNW 10:44:59 23° NNW 10:50:42 10° NNE daylight
14 Dec - 18:04:41 10° NNW 18:10:08 21° NNE 18:14:57 10° ENE daylight
14 Dec - 19:52:55 10° NW 19:59:46 67° NNE 20:05:12 10° ESE visible
14 Dec - 21:43:34 10° W 21:48:22 26° SSW 21:52:23 10° SSE visible
15 Dec - 06:52:55 10° SSW 06:56:56 29° SSE 07:01:46 10° E daylight
15 Dec - 08:40:19 10° WSW 08:45:31 58° NNW 08:52:05 10° NE daylight
15 Dec - 10:30:51 10° WNW 10:35:11 19° NNW 10:40:03 10° NNE daylight
15 Dec - 16:09:19 10° NNE 16:09:39 10° NNE 16:09:59 10° NNE daylight
15 Dec - 17:54:06 10° NNW 18:00:18 26° NNE 18:05:45 10° ENE daylight
15 Dec - 19:42:42 10° WNW 19:49:52 82° NNE 19:55:32 10° ESE visible
15 Dec - 21:33:54 10° W 21:38:29 22° SSW 21:42:23 10° SSE visible
16 Dec - 06:43:01 10° SW 06:47:04 35° SSE 06:52:00 10° E daylight
16 Dec - 08:30:47 10° W 08:35:41 45° NNW 08:41:48 10° NE daylight
16 Dec - 10:21:59 10° NW 10:25:26 15° NNW 10:29:15 10° NNE daylight
16 Dec - 15:57:06 10° N 15:59:55 12° NNE 16:02:40 10° NE daylight
16 Dec - 17:43:37 10° NNW 17:50:25 31° NNE 17:56:23 10° E daylight
16 Dec - 19:32:33 10° WNW 19:39:55 83° SSW 19:45:49 10° ESE visible
16 Dec - 21:24:19 10° WSW 21:28:36 19° SSW 21:32:19 10° SSE visible
17 Dec - 06:33:10 10° SW 06:37:14 44° SSE 06:42:10 10° ENE daylight
17 Dec - 08:21:21 10° W 08:25:53 35° NNW 08:31:28 10° NE daylight
17 Dec - 10:13:31 10° NW 10:15:44 12° NNW 10:18:05 10° N daylight
17 Dec - 15:46:09 10° N 15:50:08 14° NNE 15:54:01 10° NE daylight
17 Dec - 17:33:12 10° NW 17:40:31 37° NNE 17:46:55 10° E daylight
17 Dec - 19:22:27 10° WNW 19:29:56 69° SSW 19:36:00 10° SE visible
17 Dec - 21:14:50 10° WSW 21:18:43 17° SSW 21:22:10 10° S visible
